FENGYUN 1C DEB, 30568

Orbit data source: Space-Track

FENGYUN 1C DEB, 30568 is space debris in SSO originally from a launch on Mon, 10 May 1999 UTC launched from the Taiyaun Space Center, China (TSC). Fengyun 1C debris stems from the Chinese weather satellite Fengyun-1C, which was intentionally destroyed by a Chinese anti-satellite missile in 2007. This event dramatically increased the amount of space debris, with thousands of trackable fragments posing hazards to satellites and human spaceflight. The Fengyun 1C debris cloud has become a focal point in discussions about space sustainability and the need for international regulations to prevent the creation of new debris.

Loading next visibility...
Identifier
30568, 1999-025ALJ
Orbit
SSO
Country
Flag of CNCN / PRC
Related business
Manufacturer
Unknown
Mission
Spacecraft
Bus & Motor
Unknown
Mass
Unknown
Launch date (UTC)
1999-05-10 (27 years ago)
Launch vehicle
Unknown
Launch site
Taiyaun Space Center, China (TSC)
Object type
Payload
Rocket body
Debris
Shape & HBR
Unknown shape, 0.1 m
Radar Cross Section
Small (<0.1 m²)

Expand to show TLE details & history
Last TLE update: 9 hours ago

TLE from 9 hours ago
0 FENGYUN 1C DEB
1 30568U 99025ALJ 26063.08027819  .00017762  00000-0  38865-2 0  9994
2 30568  98.9454 244.1351 0016520 296.1201 189.2483 14.57694885988432
Epoch: 2026-03-04T01:55Z
TLE epoch observation values (Epoch: 2026-03-04T01:55:36.035Z)
Latitude
53.7932°
Longitude
-114.26626°
Altitude
720.978 km
Speed
7.494 km/s
True Right ascension
05h 05m 56s
True Declination
53° 37' 42"
Sunlit
Object was in daylight at epoch
Visualization orbit readout
Latitude
Unknown
Longitude
Unknown
Altitude
Unknown
Speed
Unknown
Apparent Right ascension
Unknown
Apparent Declination
Unknown
Sunlit
N/A
Visualization observer readout
Local Sidereal Time
14:15:15
Azimuth
Unknown
Elevation
Unknown
Doppler factor
Unknown
Orbital elements
Apogee altitude
709.436 km
Perigee altitude
686.057 km
Semi-major axis
7,075.884 km
Eccentricity
0.00165
Inclination
98.9454°
RAAN
244.1351°
Arg. of periapsis
296.1201°
True anomaly
189.21794°
Mean anomaly
189.2483°
Eccentric anomaly
189.23311°
Mean motion
3.64647 °/min
Orbital period
98.73 mins
BSTAR
0.0038865
Loading maneuver chart data...
Computing Atmospheric mass density...
Loading historical data...
Loading historical data...
Loading historical data...
Loading historical data...
Loading historical data...
Loading historical data...
Loading historical data...

Documentation

Showing up to 5 results
|